Home   Weather   Nome   Past weeks

Flag for USA Past Weather in Nome, Alaska, USA — Yesterday and Last 2 Weeks

Now
44 °F

Passing clouds.


Feels Like: 36 °F
Forecast: 42 / 46 °F
Wind: 21 mph from East

Location: Nome Airport

Current Time: Oct 1, 2016 at 4:12:05 AM

Latest Report: Oct 1, 2016 at 3:53 AM


Visibility: 10 mi

Pressure: 29.62 "Hg

Humidity: 76%

Dew Point: 37 °F

Location of NomeLocation

Past Weather in Nome — Graph

°F

Nome Temperature Yesterday

Maximum temperature yesterday: 48 °F (at 9:56 AM)
Minimum temperature yesterday: 45 °F (at 10:53 PM)
Average temperature yesterday: 47 °F

High & Low Weather Summary for the Past Weeks

 TemperatureHumidityPressure
High48 °F (Sep 16, 7:53 PM)100% (Sep 19, 12:53 AM)30.40 "Hg (Sep 19, 12:53 AM)
Low29 °F (Sep 17, 5:53 AM)54% (Sep 16, 12:53 PM)29.13 "Hg (Sep 21, 8:53 AM)
Average42 °F87%29.70 "Hg
* Reported Sep 16 2:53 AM — Oct 1 2:53 AM, Nome, Weather by CustomWeather, © 2016

Note: Actual official high and low records may vary slightly from our data, if they occured in-between our weather recording intervals... More about our weather records

Advertising

Nome Weather History for the Previous 24 Hours

Scroll right to see more
 ConditionsComfort  
Time TempWeatherWind HumidityBarometerVisibility
2:53 AM
Sat, Oct 1
45 °FPassing clouds.22 mph74%29.65 "Hg10 mi
1:53 AM46 °FPassing clouds.22 mph71%29.70 "Hg10 mi
12:53 AM45 °FPassing clouds.24 mph76%29.72 "Hg10 mi
11:53 PM
Fri, Sep 30
45 °FPassing clouds.21 mph80%29.78 "Hg10 mi
10:53 PM45 °FPassing clouds.20 mph82%29.81 "Hg10 mi
9:53 PM46 °FOvercast.21 mph86%29.85 "Hg10 mi
8:53 PM46 °FMostly cloudy.17 mph89%29.89 "Hg10 mi
7:53 PM47 °FMostly cloudy.20 mph90%29.92 "Hg10 mi
6:53 PM46 °FLow clouds.15 mph96%29.96 "Hg10 mi
5:53 PM46 °FLight rain. Fog.18 mph96%29.98 "Hg6 mi
4:53 PM46 °FLight rain. Fog.17 mph96%30.03 "Hg2 mi
3:53 PM46 °FLight rain. Fog.17 mph100%30.06 "Hg1 mi
2:53 PM46 °FLight rain. Fog.18 mph100%30.08 "Hg2 mi
1:53 PM47 °FLight rain. Fog.21 mph93%30.11 "Hg3 mi
12:53 PM47 °FLight rain. Overcast.21 mph93%30.13 "Hg7 mi
11:53 AM48 °FMostly cloudy.21 mph83%30.14 "Hg10 mi
10:59 AM48 °FMore clouds than sun.18 mph83%30.16 "Hg10 mi
9:56 AM48 °FMostly cloudy.20 mph83%30.17 "Hg10 mi
8:53 AM47 °FPassing clouds.17 mph86%30.18 "Hg10 mi
7:53 AM47 °FOvercast.14 mph86%30.20 "Hg10 mi
6:53 AM47 °FOvercast.16 mph90%30.22 "Hg10 mi
5:53 AM47 °FOvercast.17 mph90%30.23 "Hg10 mi
4:53 AM47 °FPassing clouds.17 mph90%30.25 "Hg10 mi
Weather by CustomWeather, © 2016

See weather overviewHow to use our weather pages